| time (UTC) | temp F | wind direction | speed MPH | gust MPH | rain 1hr in | rain 24hr in | rain mn in | humidity % | barometer mb |
| 20260503173126 | 76 | 222 | 6.0 | 18.0 | 0.00 | 0.00 | 0.00 | 47 | 1012.5 |
| 20260503171539 | 75 | 11 | 8.0 | 19.0 | 0.00 | 0.00 | 0.00 | 46 | 1012.6 |
| 20260503170125 | 75 | 11 | 2.0 | 16.0 | 0.00 | 0.00 | 0.00 | 49 | 1012.8 |
| 20260503110118 | 50 | 11 | 7.0 | 19.0 | 0.00 | 0.00 | 0.00 | 59 | 1015.4 |
| 20260503100122 | 50 | 11 | 5.0 | 16.0 | 0.00 | 0.00 | 0.00 | 59 | 1015.6 |
| 20260503081554 | 50 | 11 | 4.0 | 12.0 | 0.00 | 0.00 | 0.00 | 59 | 1016.3 |
| 20260503071624 | 52 | 11 | 2.0 | 17.0 | 0.00 | 0.00 | 0.00 | 56 | 1016.9 |
| 20260503054630 | 52 | 11 | 4.0 | 12.0 | 0.00 | 0.00 | 0.00 | 57 | 1017.6 |
| 20260503053042 | 51 | 11 | 4.0 | 11.0 | 0.00 | 0.00 | 0.00 | 58 | 1017.7 |
| 20260503051637 | 51 | 11 | 2.0 | 8.0 | 0.00 | 0.00 | 0.00 | 58 | 1017.8 |
| 20260503050052 | 52 | 11 | 2.0 | 10.0 | 0.00 | 0.00 | 0.00 | 56 | 1018.0 |
| 20260503044519 | 52 | 11 | 3.0 | 10.0 | 0.00 | 0.00 | 0.00 | 56 | 1018.2 |
| 20260503043105 | 52 | 11 | 3.0 | 10.0 | 0.00 | 0.00 | 0.00 | 55 | 1018.3 |
| 20260503041526 | 53 | 11 | 1.0 | 8.0 | 0.00 | 0.00 | 0.00 | 55 | 1018.5 |
| 20260503040112 | 53 | 11 | 2.0 | 11.0 | 0.00 | 0.00 | 0.00 | 54 | 1018.6 |
| 20260503034517 | 53 | 11 | 1.0 | 5.0 | 0.00 | 0.00 | 0.00 | 53 | 1018.7 |
| 20260503033118 | 54 | 11 | 1.0 | 6.0 | 0.00 | 0.00 | 0.00 | 52 | 1018.7 |
| 20260503031521 | 54 | 11 | 1.0 | 8.0 | 0.00 | 0.00 | 0.00 | 51 | 1018.7 |
| 20260503030115 | 55 | 184 | 1.0 | 6.0 | 0.00 | 0.00 | 0.00 | 50 | 1018.8 |
| 20260503024537 | 55 | 11 | 2.0 | 6.0 | 0.00 | 0.00 | 0.00 | 49 | 1018.9 |
| 20260503023120 | 56 | 11 | 1.0 | 8.0 | 0.00 | 0.00 | 0.00 | 48 | 1019.0 |
| 20260503021531 | 56 | 188 | 1.0 | 4.0 | 0.00 | 0.00 | 0.00 | 46 | 1019.0 |
| 20260503020120 | 56 | 11 | 1.0 | 5.0 | 0.00 | 0.00 | 0.00 | 46 | 1019.0 |
| 20260503014533 | 57 | 11 | 1.0 | 3.0 | 0.00 | 0.00 | 0.00 | 45 | 1018.9 |
| 20260503013128 | 57 | 222 | 0.0 | 1.0 | 0.00 | 0.00 | 0.00 | 45 | 1018.8 |
| 20260503011548 | 58 | 11 | 0.0 | 2.0 | 0.00 | 0.00 | 0.00 | 45 | 1018.7 |
| 20260503010003 | 59 | 222 | 0.0 | 4.0 | 0.00 | 0.00 | 0.00 | 44 | 1018.8 |
| 20260503004550 | 60 | 245 | 0.0 | 2.0 | 0.00 | 0.00 | 0.00 | 43 | 1018.9 |
| 20260503003003 | 61 | 11 | 0.0 | 6.0 | 0.00 | 0.00 | 0.00 | 42 | 1018.9 |
| 20260503001547 | 61 | 11 | 1.0 | 5.0 | 0.00 | 0.00 | 0.00 | 40 | 1018.9 |
| 20260503000009 | 62 | 11 | 1.0 | 5.0 | 0.00 | 0.00 | 0.00 | 39 | 1019.0 |
| 20260502234555 | 62 | 11 | 0.0 | 4.0 | 0.00 | 0.00 | 0.00 | 38 | 1018.9 |
| 20260502233013 | 62 | 11 | 1.0 | 5.0 | 0.00 | 0.00 | 0.00 | 40 | 1019.1 |
| 20260502231559 | 63 | 11 | 0.0 | 7.0 | 0.00 | 0.00 | 0.00 | 39 | 1019.2 |
| 20260502230032 | 63 | 11 | 2.0 | 6.0 | 0.00 | 0.00 | 0.00 | 38 | 1019.2 |
| 20260502224626 | 63 | 276 | 1.0 | 6.0 | 0.00 | 0.00 | 0.00 | 39 | 1019.3 |
| 20260502223035 | 63 | 11 | 1.0 | 6.0 | 0.00 | 0.00 | 0.00 | 36 | 1019.4 |
| 20260502221622 | 64 | 11 | 1.0 | 6.0 | 0.00 | 0.00 | 0.00 | 38 | 1019.4 |
| 20260502220051 | 64 | 282 | 1.0 | 8.0 | 0.00 | 0.00 | 0.00 | 36 | 1019.5 |
| 20260502214627 | 65 | 11 | 1.0 | 8.0 | 0.00 | 0.00 | 0.00 | 37 | 1019.6 |
| 20260502213040 | 65 | 11 | 0.0 | 8.0 | 0.00 | 0.00 | 0.00 | 33 | 1019.8 |
| 20260502211627 | 65 | 33 | 2.0 | 6.0 | 0.00 | 0.00 | 0.00 | 35 | 1019.9 |
| 20260502210052 | 65 | 11 | 1.0 | 8.0 | 0.00 | 0.00 | 0.00 | 37 | 1020.2 |
| 20260502204630 | 65 | 42 | 1.0 | 8.0 | 0.00 | 0.00 | 0.00 | 32 | 1020.4 |
| 20260502203100 | 64 | 11 | 2.0 | 8.0 | 0.00 | 0.00 | 0.00 | 36 | 1020.5 |
| 20260502201631 | 64 | 322 | 2.0 | 9.0 | 0.00 | 0.00 | 0.00 | 40 | 1020.7 |
| 20260502200044 | 63 | 44 | 2.0 | 5.0 | 0.00 | 0.00 | 0.00 | 36 | 1020.8 |
| 20260502194502 | 63 | 27 | 0.0 | 11.0 | 0.00 | 0.00 | 0.00 | 37 | 1020.9 |
| 20260502193053 | 63 | 74 | 0.0 | 4.0 | 0.00 | 0.00 | 0.00 | 35 | 1021.2 |
| 20260502191501 | 62 | 276 | 0.0 | 8.0 | 0.00 | 0.00 | 0.00 | 41 | 1021.2 |
| 20260502190105 | 63 | 11 | 2.0 | 9.0 | 0.00 | 0.00 | 0.00 | 39 | 1021.4 |
| 20260502184516 | 61 | 91 | 1.0 | 11.0 | 0.00 | 0.00 | 0.00 | 39 | 1021.6 |
| 20260502183059 | 60 | 28 | 3.0 | 12.0 | 0.00 | 0.00 | 0.00 | 38 | 1021.7 |
| 20260502181503 | 62 | 80 | 1.0 | 5.0 | 0.00 | 0.00 | 0.00 | 39 | 1021.9 |
| 20260502180110 | 61 | 32 | 3.0 | 9.0 | 0.00 | 0.00 | 0.00 | 38 | 1022.2 |